Theta_e
315 310 307 304 295 291 287 290 294 293 295 300 297 296 296 295 295 291 307 320 327 332 339 347 352 355 355 354 354 352 351 350 349 349 349 349 350 349 347 345 347 343 342 342 339 338 337 336 337
311 310 304 296 289 285 287 290 291 294 295 297 298 297 297 299 300 306 311 320 328 333 341 345 348 354 355 354 353 352 351 351 349 347 347 347 345 346 346 346 345 343 341 340 337 336 334 333 333
309 306 298 292 286 285 287 291 295 294 296 300 299 302 299 296 304 309 313 321 331 334 339 343 347 354 354 353 352 352 351 351 349 347 346 346 346 346 347 346 345 340 338 338 335 333 330 329 329
305 301 296 289 287 290 291 294 292 295 299 299 300 297 299 302 302 310 316 325 330 333 338 342 348 352 353 351 351 351 351 351 350 348 348 346 345 346 343 340 342 340 335 332 332 330 327 324 323
299 295 289 287 288 291 289 293 292 293 298 299 300 297 295 300 312 315 318 326 326 330 336 339 346 350 351 351 350 350 350 351 350 350 349 346 343 341 337 336 338 337 334 331 331 328 324 321 318
297 292 287 285 287 290 292 292 293 293 292 296 298 296 298 302 309 313 316 318 324 330 334 337 338 343 347 349 349 349 349 349 348 348 348 346 343 340 335 334 334 334 332 331 330 326 322 318 316
294 288 285 285 287 289 291 293 296 296 292 296 300 296 297 302 304 310 313 312 319 326 331 334 338 340 338 342 343 345 346 346 346 346 346 345 342 339 337 336 334 332 332 331 329 324 321 317 314
294 291 286 285 287 287 292 294 293 297 293 296 296 294 295 300 304 311 312 314 311 323 328 330 333 341 340 339 336 338 341 342 342 341 339 336 334 334 334 331 333 332 333 330 328 323 320 317 312
294 287 284 287 288 290 293 294 294 295 293 295 295 300 297 302 306 307 308 310 312 316 319 326 330 337 340 342 335 331 334 336 337 336 333 330 329 328 327 327 330 333 334 330 328 323 320 316 310
291 285 286 289 293 294 294 293 294 296 293 295 293 297 299 299 302 302 301 300 301 305 313 319 327 335 337 339 340 337 334 335 337 335 333 330 329 328 326 322 326 330 329 330 327 323 318 304 292
292 288 290 293 294 294 294 293 294 295 292 293 293 297 296 294 294 294 294 294 294 296 301 305 319 332 335 336 336 337 338 337 336 335 333 329 325 325 324 323 323 322 319 317 318 311 305 296 292
292 295 294 297 297 295 293 295 295 294 295 296 295 294 293 293 293 293 294 294 294 295 296 297 299 316 332 335 336 335 335 332 329 332 330 327 325 323 322 321 321 320 317 315 309 306 303 299 295
293 293 295 296 296 295 294 294 293 295 294 294 295 294 292 292 292 293 293 294 294 294 295 296 298 299 320 331 333 333 333 333 332 328 328 328 325 322 321 320 319 317 315 313 309 304 302 299 294
292 293 294 295 294 294 293 291 291 293 293 294 293 291 291 291 291 291 292 292 292 294 294 296 299 304 311 325 329 331 330 331 330 329 328 326 325 323 320 318 317 315 313 309 306 303 301 298 293
293 291 292 292 292 292 293 290 291 293 292 291 290 290 291 291 291 289 291 291 291 292 294 295 299 306 313 319 321 325 326 327 327 327 325 324 322 321 317 318 316 315 312 309 306 302 298 295 292
289 288 285 289 291 291 292 288 293 293 292 289 289 288 289 289 289 289 290 290 291 292 293 295 298 303 315 316 318 320 322 323 322 323 323 323 323 322 318 317 316 316 311 309 306 304 301 296 292
285 282 283 288 291 290 289 288 292 292 291 288 287 287 288 288 288 289 289 289 290 290 292 294 296 299 311 316 316 314 312 314 313 314 316 319 320 321 319 317 316 313 310 308 306 301 301 299 295
283 282 284 284 288 290 287 289 290 288 288 286 286 286 286 287 287 288 288 288 289 289 291 292 294 295 301 308 306 304 303 304 305 304 306 308 311 313 314 313 312 310 309 306 303 302 296 295 294
286 284 283 285 289 287 287 287 287 287 287 286 285 285 285 286 288 288 287 287 288 288 289 290 291 292 295 296 297 297 295 297 298 298 298 299 301 305 306 307 306 306 304 303 301 298 297 296 292
285 283 284 287 289 288 286 286 285 286 286 286 285 285 285 285 285 286 286 286 285 286 287 288 289 290 292 293 293 293 293 292 293 294 294 294 294 295 299 301 301 301 301 300 299 297 296 294 292
285 284 284 286 286 285 283 283 284 285 286 286 286 286 285 284 284 284 283 283 283 284 284 286 287 288 289 291 292 291 291 290 289 289 289 289 289 290 291 292 295 297 298 297 297 296 295 294 293
284 289 288 286 283 280 283 278 282 283 283 284 284 283 283 283 284 283 282 282 282 282 283 285 285 286 287 288 288 286 285 284 284 285 285 286 286 285 287 288 289 289 291 290 293 294 294 293 292
288 288 286 284 281 280 279 278 281 282 281 282 283 284 283 283 283 282 282 282 282 282 281 282 284 284 284 284 284 284 282 283 282 282 283 283 284 284 284 284 285 285 286 286 287 288 289 290 289
289 286 284 281 280 276 280 280 279 281 283 282 283 284 284 283 283 282 283 282 281 281 281 281 282 282 282 283 282 282 281 281 281 281 281 281 282 282 283 283 283 283 283 283 284 285 286 287 288
286 285 279 276 274 276 279 277 281 285 285 285 284 284 284 283 282 282 281 280 280 280 281 282 281 281 281 281 281 281 280 280 280 280 280 280 281 281 281 282 282 282 282 283 282 282 282 284 285
284 285 279 271 272 275 280 278 283 284 285 286 286 285 284 283 283 282 281 280 279 280 280 280 281 280 281 281 280 280 280 280 280 280 280 280 280 281 282 282 281 282 282 282 282 282 282 282 282
283 282 284 279 273 274 278 281 283 283 282 283 284 283 282 283 282 282 282 281 279 279 279 279 280 280 281 280 280 280 280 279 279 279 279 279 280 282 281 280 280 281 281 281 281 280 280 280 281
286 288 282 279 269 267 275 277 278 281 282 282 282 282 283 283 283 282 281 281 281 280 280 280 280 279 280 280 280 280 279 279 279 279 278 278 279 279 279 279 279 279 279 279 279 279 280 279 279
284 283 283 282 277 270 267 274 282 284 283 283 283 284 283 284 283 282 281 281 281 280 279 279 279 279 279 279 279 279 279 279 279 278 278 278 278 278 278 278 278 278 278 278 277 277 277 276 277
285 285 285 279 276 276 276 278 285 285 285 285 285 285 284 283 283 282 281 280 279 279 279 279 278 278 279 279 279 279 278 278 278 278 278 278 277 278 277 277 277 277 277 277 276 276 276 276 276
Wind_Speed
5 4 3 6 5 6 1 1 1 2 1 1 2 3 2 3 4 4 3 6 1 7 9 9 10 13 12 11 11 10 9 9 9 9 10 9 8 9 8 9 8 11 10 9 8 8 9 10 10
3 1 5 3 7 5 5 4 2 2 0 1 2 2 2 1 1 5 2 6 2 6 7 8 11 11 13 12 12 10 9 9 8 8 7 7 7 7 6 7 9 9 11 9 8 9 9 9 9
1 4 5 6 4 4 4 4 2 3 1 2 1 0 3 1 1 2 2 8 5 6 6 6 9 11 12 13 14 13 9 8 9 8 8 8 6 7 5 5 5 12 10 8 6 7 8 8 8
3 5 5 6 2 1 3 3 2 3 2 2 1 2 3 1 1 2 3 7 6 5 6 7 10 10 9 13 14 13 12 10 10 9 10 10 8 8 7 6 7 9 8 3 4 6 7 7 7
5 4 5 4 2 3 3 2 1 2 2 1 1 2 3 2 3 2 4 4 5 5 4 6 11 10 9 10 12 12 11 11 12 11 9 10 8 6 4 5 6 7 4 3 4 5 6 7 6
5 4 5 1 3 4 3 3 2 1 3 3 1 0 3 3 1 2 3 3 3 6 5 5 8 9 9 9 10 10 10 9 10 11 14 13 10 7 3 2 3 3 3 2 2 4 6 6 6
7 5 4 3 2 3 2 6 3 0 3 2 1 3 3 4 5 3 3 2 3 3 5 5 6 7 8 9 9 10 10 9 10 10 11 11 11 9 7 4 1 3 3 3 1 4 5 5 6
6 5 3 2 2 2 3 5 2 1 2 4 0 2 4 2 5 3 3 4 3 1 3 3 3 8 4 5 8 9 9 7 6 6 8 8 10 9 9 7 4 4 2 2 0 2 4 5 6
3 6 1 4 5 2 2 5 1 2 2 4 2 1 4 5 3 3 5 5 4 3 3 3 3 6 7 5 4 6 7 7 6 5 6 7 4 5 7 6 6 3 2 2 2 1 3 6 8
6 4 7 3 3 1 3 0 3 3 6 2 3 4 9 6 8 7 8 8 8 8 6 5 4 5 6 5 5 4 4 4 5 5 5 3 3 4 5 4 4 1 2 3 2 1 8 6 3
2 5 3 2 3 0 3 4 2 1 5 5 3 9 9 9 11 10 7 6 5 7 6 8 6 7 7 5 3 2 3 2 3 4 4 5 4 3 3 2 2 2 3 2 3 4 3 3 3
1 3 4 2 1 2 2 4 5 5 4 4 4 6 6 11 10 9 9 9 10 8 7 9 8 7 10 5 4 4 3 2 0 3 5 4 2 3 3 3 3 3 2 2 1 1 2 2 2
2 2 2 3 4 5 3 5 4 9 4 8 10 12 11 10 9 7 8 7 10 10 10 11 8 6 7 11 6 4 3 3 3 2 2 4 4 4 3 3 3 3 3 3 2 1 1 1 2
1 2 7 7 3 3 4 2 2 5 6 10 11 10 9 10 10 8 12 11 12 13 14 11 11 8 6 6 8 4 2 2 3 2 3 4 4 4 4 4 4 4 3 4 3 2 1 2 2
2 5 6 4 1 4 6 2 6 1 9 9 9 7 8 8 10 10 8 8 9 8 10 12 12 11 1 5 5 4 2 2 1 0 2 4 5 6 6 4 3 3 3 5 5 3 1 1 2
3 4 4 2 2 2 3 8 4 9 9 8 8 8 8 10 8 8 9 9 10 10 12 11 10 11 8 6 6 4 4 4 4 4 3 4 4 3 1 2 3 2 3 3 3 3 2 3 2
5 3 4 8 3 1 3 7 1 13 8 7 7 7 7 8 11 12 11 10 11 11 12 13 12 12 12 13 12 12 13 10 9 9 9 11 8 5 3 2 2 1 2 3 2 2 3 1 1
6 4 4 6 1 4 3 10 5 10 10 7 7 7 7 10 11 11 11 10 10 11 11 12 11 13 10 10 10 9 11 10 10 10 11 14 11 12 8 6 6 5 3 3 3 3 2 1 1
5 5 5 3 3 3 6 7 4 5 7 7 6 6 6 8 6 7 10 10 11 14 14 15 14 13 8 6 4 7 6 7 10 11 14 14 13 13 11 7 7 6 5 5 4 2 4 2 3
3 3 5 5 2 4 4 7 4 5 3 4 6 6 6 5 8 9 10 10 11 10 10 12 13 13 9 5 4 4 4 6 8 8 13 14 14 14 11 10 8 8 5 5 4 4 2 2 2
5 6 5 6 2 0 5 6 5 3 4 5 4 3 4 5 6 7 8 10 8 12 11 11 12 13 11 10 5 4 5 5 7 10 9 12 13 13 13 13 11 10 7 6 4 3 2 1 1
4 7 5 4 3 4 2 6 4 4 4 4 6 5 5 5 5 6 7 7 8 8 7 9 12 12 11 10 13 15 9 9 4 4 6 8 12 13 12 11 11 10 8 11 8 7 4 2 2
5 5 6 3 4 3 2 1 7 4 3 5 6 5 5 5 6 6 5 5 5 7 7 7 10 12 11 11 11 10 11 7 4 5 8 9 9 11 11 11 12 11 8 8 9 9 9 5 4
9 6 7 5 3 0 6 7 5 5 4 5 4 6 6 6 5 5 5 4 5 6 7 6 10 10 9 11 12 12 11 8 8 8 8 6 5 7 11 9 8 7 8 9 7 6 7 6 5
4 6 2 4 2 6 1 2 9 5 3 8 14 10 8 7 6 6 6 4 4 5 5 5 8 9 7 10 10 9 9 8 9 6 5 6 5 4 8 8 8 6 6 6 6 6 6 6 5
6 7 7 8 4 4 2 7 7 2 3 6 11 10 8 7 6 6 6 5 5 6 5 6 6 7 7 8 8 7 7 5 5 6 4 4 4 4 6 6 6 7 8 8 7 5 5 6 5
4 4 3 7 2 2 5 5 2 2 1 4 9 9 10 8 8 8 7 6 6 5 5 6 6 6 7 7 6 7 6 6 6 6 5 4 4 5 5 6 6 6 6 6 7 5 6 5 5
5 6 4 3 1 6 4 5 6 5 7 6 8 10 8 8 8 6 6 6 5 6 5 5 5 7 6 7 6 5 5 6 5 5 6 6 5 6 6 6 6 7 6 6 6 5 6 5 5
3 3 5 5 4 6 3 6 6 7 11 13 12 12 9 9 8 8 7 7 6 5 5 5 6 6 6 6 5 6 5 6 5 5 5 5 4 5 5 5 5 5 5 5 5 5 6 6 7
2 7 7 6 6 3 1 8 3 3 11 13 12 10 8 7 9 8 8 7 7 7 6 6 5 6 6 5 5 5 5 4 5 5 5 5 5 5 5 5 6 7 7 6 8 9 8 8 9
Wind_Direction
351 16 67 43 58 66 335 278 259 324 17 210 125 127 158 174 153 205 275 191 295 148 164 171 178 170 159 157 149 150 148 141 131 124 119 115 107 106 106 104 99 89 73 56 53 52 47 41 43
349 79 43 76 82 65 280 263 230 222 219 126 113 90 60 314 241 285 16 181 178 154 162 169 174 174 164 164 157 153 152 146 138 132 127 125 124 135 127 127 125 104 72 61 50 47 44 40 37
148 40 81 92 105 151 192 232 239 309 359 58 83 87 149 280 262 235 256 156 148 156 160 171 177 172 176 183 159 152 158 155 152 149 142 128 114 169 145 136 125 84 73 59 40 40 38 35 32
58 13 39 79 113 228 212 322 255 338 31 38 82 44 319 248 294 306 332 147 141 158 162 169 181 180 184 169 156 160 161 166 167 175 171 147 128 107 90 51 72 94 90 53 27 36 30 27 22
34 53 54 76 302 281 286 349 106 336 320 340 355 326 291 0 327 46 89 134 150 165 166 172 181 185 180 176 165 167 172 189 186 176 172 146 141 126 98 59 44 62 54 358 2 26 26 20 16
42 89 60 147 274 302 306 8 328 42 306 320 51 32 268 291 326 117 108 153 177 175 177 180 192 187 180 177 172 174 187 214 185 187 173 156 157 160 140 66 355 12 312 291 347 15 19 17 17
104 78 166 172 260 330 302 330 72 232 314 325 267 355 289 36 338 52 129 139 186 196 187 192 190 198 185 182 183 184 194 213 207 198 172 161 160 159 149 144 139 219 256 287 326 20 12 13 19
102 93 116 246 193 235 322 358 162 94 289 304 241 321 323 335 4 92 88 48 35 283 273 259 222 211 200 191 187 187 194 205 224 184 160 154 160 163 159 163 174 209 238 258 88 26 4 10 11
112 60 163 223 156 221 324 22 291 317 293 340 328 145 325 338 22 47 17 13 9 357 295 283 260 235 224 217 208 202 197 193 208 197 171 155 161 171 170 168 190 210 159 193 166 60 359 41 11
85 106 219 212 200 250 325 146 319 16 351 290 322 344 359 357 13 15 17 356 347 333 316 267 228 219 224 218 203 197 211 205 197 176 181 165 176 161 168 172 184 223 123 133 174 157 82 53 23
144 180 207 255 236 309 302 305 189 142 288 234 335 311 357 25 34 39 36 26 335 309 337 336 296 237 216 210 178 178 203 208 187 197 184 158 161 146 144 139 142 85 59 30 59 68 72 54 31
69 237 189 285 131 67 280 313 307 172 222 98 59 49 40 28 26 17 7 356 348 343 334 329 334 298 238 209 190 173 179 174 239 182 155 151 160 143 154 162 159 147 116 129 107 101 115 90 25
173 263 205 264 275 252 328 243 249 272 36 77 76 54 41 29 17 10 360 359 351 349 336 330 318 303 253 225 212 169 163 162 162 175 176 148 155 161 152 165 156 167 151 166 182 192 203 314 338
272 303 290 286 221 231 217 283 161 71 98 77 63 55 41 35 16 9 11 360 358 343 341 331 324 308 243 214 211 190 153 153 149 174 187 190 157 158 166 183 176 184 182 153 160 185 270 299 325
7 335 322 263 300 200 157 250 224 66 84 79 60 56 57 37 23 18 358 353 348 338 329 345 341 335 82 117 104 85 88 60 67 245 202 217 210 183 173 167 205 193 179 157 137 135 106 310 321
43 55 348 310 0 3 148 259 265 46 71 65 51 37 35 30 24 11 1 357 353 351 359 351 358 5 28 85 98 88 62 49 31 15 358 329 315 335 160 208 211 180 171 166 154 163 189 230 245
6 229 207 314 26 144 91 267 288 7 44 81 56 40 34 23 23 13 4 359 356 356 0 6 9 20 43 59 63 63 56 50 43 39 29 18 17 2 341 313 326 210 165 198 188 145 149 183 273
199 214 241 239 355 26 340 274 345 17 72 78 63 45 37 39 19 6 9 6 6 9 17 20 22 21 28 62 69 65 58 51 46 40 34 28 29 32 38 39 36 21 13 12 25 5 31 56 320
136 172 213 261 201 216 240 259 3 47 66 73 66 60 51 43 354 13 16 15 18 23 25 24 26 13 30 38 49 49 57 39 44 43 38 35 29 30 32 39 40 37 43 46 48 29 352 356 23
156 169 246 278 283 182 307 279 67 41 55 103 116 91 72 51 23 17 16 23 28 27 25 31 39 31 25 34 49 76 79 53 56 43 39 29 29 29 33 32 33 30 38 49 52 64 9 24 30
202 183 193 214 338 338 333 291 189 63 106 89 69 86 69 73 55 18 18 20 16 28 16 27 32 40 32 41 67 65 60 52 37 31 32 28 30 33 31 30 28 22 24 29 27 36 70 22 341
212 206 161 168 125 228 34 283 288 185 153 143 140 128 111 74 60 34 22 27 14 13 13 35 42 44 40 41 65 66 74 77 37 48 37 37 35 34 34 41 40 35 26 21 7 6 2 353 288
216 116 142 127 115 67 294 243 258 115 221 216 197 165 145 139 120 95 46 35 11 12 20 23 53 51 47 53 64 75 77 74 62 54 54 40 32 35 33 29 27 32 35 31 23 17 12 358 340
144 81 46 45 91 313 225 175 271 186 212 167 175 183 174 168 144 130 115 75 42 29 40 33 63 54 51 61 65 73 77 73 65 48 49 31 23 26 27 28 34 33 27 17 11 16 30 17 3
111 104 331 343 1 230 107 163 242 165 176 190 180 183 183 182 174 155 125 104 78 65 59 67 75 67 61 72 69 70 73 71 72 63 51 40 24 20 11 14 21 20 12 16 12 14 15 16 5
179 164 161 214 204 259 316 234 270 306 305 217 162 162 170 181 185 179 149 151 138 116 98 84 85 88 75 80 75 71 73 73 72 62 53 48 39 25 10 15 12 10 15 10 8 6 356 360 357
188 186 157 103 54 34 233 275 261 82 46 122 147 160 183 182 192 182 175 173 153 135 125 121 108 92 83 86 84 71 74 77 72 59 56 46 25 20 10 15 7 1 6 5 2 349 344 341 340
138 158 86 2 196 262 273 272 240 220 203 172 178 203 204 194 182 182 188 180 173 155 144 142 134 126 119 109 106 104 94 84 81 72 54 39 20 14 10 4 1 358 355 351 347 340 328 331 324
138 175 68 121 141 179 278 250 208 211 176 186 203 208 201 199 183 188 190 189 174 165 171 161 147 135 128 122 118 101 84 66 61 56 39 27 15 5 5 357 348 347 334 320 316 310 306 308 305
168 183 156 157 218 256 195 257 24 251 175 181 203 207 201 187 189 190 186 182 185 188 181 180 170 161 161 144 123 105 84 63 53 44 32 23 12 5 352 346 345 341 340 333 330 323 317 304 303